Location: Bear Valley Community Church - Hurst
(32.8460°N, 97.1828°W)
Time: 02:34:43
(UTC+00:00)

XJS H - Visible Passes

Search period start: 07 October 2022 00:00
Search period end: 17 October 2022 00:00
Orbit: 444 x 457 km, 35.0° (Epoch: 05 October)

Date Brightness Start Highest point End Pass type
(mag) Time Alt. Az. Time Alt. Az. Time Alt. Az.
11 Oct ? 11:55:12 10° SSW 11:58:02 22° SSE 12:00:51 10° E visible
12 Oct ? 11:16:24 10° SSW 11:19:01 19° SSE 11:21:37 10° ESE visible
13 Oct ? 10:39:43 16° SSE 10:39:57 17° SSE 10:42:17 10° ESE visible
14 Oct ? 11:36:32 16° WSW 11:39:13 60° SSE 11:42:43 10° E visible
15 Oct ? 10:59:39 49° S 11:00:01 52° SSE 11:03:29 10° E visible
16 Oct ? 10:22:39 23° E 10:22:39 23° E 10:24:11 10° E visible
16 Oct ? 11:56:11 12° W 11:59:28 67° N 12:03:00 10° ENE visible
